Nickelena — WDER746 — position and weather

sailwx.info

Track history (hours):
 
Tides and Currents Weather Stations Pressure Air Temp Water Temp Dewpoint Dewpoint Depression Visibility Wind Speed Wind Dir Waves Ship Positions

Nickelena

Last reported at 2014-Nov-01 13:33 UTC. Time now 2014-Nov-23 06:02 UTC.
Position N 45°07' W 085°50'.
Warning: this ship's position is 21 days out of date.

Length 33 m.

Type: Tug. MMSI: 367393840.

Date/timePositionNaut miles runAvg speedWind from/ knotsBaromVisibWave heightAir tempDewpointWater temp
2014-Nov-01 13:33N 45°07' W 085°50'9 9.3
2014-Nov-01 12:33N 45°14' W 085°43'9 9.3
2014-Nov-01 11:33N 45°22' W 085°35'9 9.2
2014-Nov-01 10:33N 45°29' W 085°27'9 9.5
2014-Nov-01 09:33N 45°37' W 085°19'9 9.2
2014-Nov-01 08:33N 45°44' W 085°11'7 6.7
2014-Nov-01 07:33N 45°50' W 085°06'8 7.9
2014-Nov-01 06:33N 45°50' W 084°55'9 9.0
2014-Nov-01 05:33N 45°49' W 084°42'5 4.5
2014-Nov-01 04:33N 45°54' W 084°43'0 0.0
2014-Nov-01 03:33N 45°54' W 084°43'0 0.0
2014-Nov-01 02:33N 45°54' W 084°43'0 0.0
2014-Nov-01 01:33N 45°54' W 084°43'0 0.0
2014-Nov-01 00:33N 45°54' W 084°43'0 0.0
2014-Oct-31 23:33N 45°54' W 084°43'0 0.0
2014-Oct-31 22:33N 45°54' W 084°43'0 0.0
2014-Oct-31 21:33N 45°54' W 084°43'0 0.0
2014-Oct-31 20:33N 45°54' W 084°43'0 0.0
2014-Oct-31 19:33N 45°54' W 084°43'0 0.0
2014-Oct-31 18:33N 45°54' W 084°43'0 0.0
2014-Oct-31 17:33N 45°54' W 084°43'0 0.0
2014-Oct-31 16:33N 45°54' W 084°43'0 0.0
2014-Oct-31 15:33N 45°54' W 084°43'0 0.0
2014-Oct-31 14:33N 45°54' W 084°43'0 0.0
2014-Oct-31 13:33N 45°54' W 084°43'0 0.0
2014-Oct-31 12:33N 45°54' W 084°43'0 0.0
2014-Oct-31 11:33N 45°54' W 084°43'0 0.0
2014-Oct-31 10:33N 45°54' W 084°43'0 0.0
2014-Oct-31 09:33N 45°54' W 084°43'0 0.0
2014-Oct-31 08:33N 45°54' W 084°43'0 0.0
2014-Oct-31 07:33N 45°54' W 084°43'0 0.0
2014-Oct-31 06:33N 45°54' W 084°43'0 0.0
2014-Oct-31 05:33N 45°54' W 084°43'0 0.0
2014-Oct-31 04:33N 45°54' W 084°43'0 0.0
2014-Oct-31 03:33N 45°54' W 084°43'0 0.0
2014-Oct-31 02:33N 45°54' W 084°43'0 0.0
2014-Oct-31 01:32N 45°54' W 084°43'0 0.0
2014-Oct-31 00:32N 45°54' W 084°43'0 0.0
2014-Oct-30 23:33N 45°54' W 084°43'0 0.0
2014-Oct-30 22:33N 45°54' W 084°43'0 0.3
2014-Oct-30 21:33N 45°54' W 084°42'7 7.3
2014-Oct-30 20:32N 45°48' W 084°36'9 9.0
2014-Oct-30 19:33N 45°42' W 084°26'  
2014-Oct-26 06:23N 45°41' W 084°17'8 9.4
2014-Oct-26 05:33N 45°42' W 084°28'9 9.2
2014-Oct-26 04:33N 45°47' W 084°39'9 9.2
2014-Oct-26 03:33N 45°49' W 084°52'9 8.9
2014-Oct-26 02:33N 45°51' W 085°05'9 9.0
2014-Oct-26 01:33N 45°52' W 085°18'9 9.1
2014-Oct-26 00:33N 45°53' W 085°30'9 8.9
2014-Oct-25 23:33N 45°50' W 085°43'9 8.8
2014-Oct-25 22:33N 45°46' W 085°54'9 8.7
2014-Oct-25 21:33N 45°43' W 086°05'9 8.6
2014-Oct-25 20:33N 45°39' W 086°16'9 8.7
2014-Oct-25 19:33N 45°35' W 086°28'  
Track history (hours):
 
Tides and Currents Weather Stations Pressure Air Temp Water Temp Dewpoint Dewpoint Depression Visibility Wind Speed Wind Dir Waves Ship Positions

Nickelena

Last reported at 2014-Nov-01 13:33 UTC. Time now 2014-Nov-23 06:02 UTC.
Position N 45°07' W 085°50'.
Warning: this ship's position is 21 days out of date.

Length 33 m.

Type: Tug. MMSI: 367393840.

Date/timePositionNaut miles runAvg speedWind from/ knotsBaromVisibWave heightAir tempDewpointWater temp
2014-Nov-01 13:33N 45°07' W 085°50'9 9.3
2014-Nov-01 12:33N 45°14' W 085°43'9 9.3
2014-Nov-01 11:33N 45°22' W 085°35'9 9.2
2014-Nov-01 10:33N 45°29' W 085°27'9 9.5
2014-Nov-01 09:33N 45°37' W 085°19'9 9.2
2014-Nov-01 08:33N 45°44' W 085°11'7 6.7
2014-Nov-01 07:33N 45°50' W 085°06'8 7.9
2014-Nov-01 06:33N 45°50' W 084°55'9 9.0
2014-Nov-01 05:33N 45°49' W 084°42'5 4.5
2014-Nov-01 04:33N 45°54' W 084°43'0 0.0
2014-Nov-01 03:33N 45°54' W 084°43'0 0.0
2014-Nov-01 02:33N 45°54' W 084°43'0 0.0
2014-Nov-01 01:33N 45°54' W 084°43'0 0.0
2014-Nov-01 00:33N 45°54' W 084°43'0 0.0
2014-Oct-31 23:33N 45°54' W 084°43'0 0.0
2014-Oct-31 22:33N 45°54' W 084°43'0 0.0
2014-Oct-31 21:33N 45°54' W 084°43'0 0.0
2014-Oct-31 20:33N 45°54' W 084°43'0 0.0
2014-Oct-31 19:33N 45°54' W 084°43'0 0.0
2014-Oct-31 18:33N 45°54' W 084°43'0 0.0
2014-Oct-31 17:33N 45°54' W 084°43'0 0.0
2014-Oct-31 16:33N 45°54' W 084°43'0 0.0
2014-Oct-31 15:33N 45°54' W 084°43'0 0.0
2014-Oct-31 14:33N 45°54' W 084°43'0 0.0
2014-Oct-31 13:33N 45°54' W 084°43'0 0.0
2014-Oct-31 12:33N 45°54' W 084°43'0 0.0
2014-Oct-31 11:33N 45°54' W 084°43'0 0.0
2014-Oct-31 10:33N 45°54' W 084°43'0 0.0
2014-Oct-31 09:33N 45°54' W 084°43'0 0.0
2014-Oct-31 08:33N 45°54' W 084°43'0 0.0
2014-Oct-31 07:33N 45°54' W 084°43'0 0.0
2014-Oct-31 06:33N 45°54' W 084°43'0 0.0
2014-Oct-31 05:33N 45°54' W 084°43'0 0.0
2014-Oct-31 04:33N 45°54' W 084°43'0 0.0
2014-Oct-31 03:33N 45°54' W 084°43'0 0.0
2014-Oct-31 02:33N 45°54' W 084°43'0 0.0
2014-Oct-31 01:32N 45°54' W 084°43'0 0.0
2014-Oct-31 00:32N 45°54' W 084°43'0 0.0
2014-Oct-30 23:33N 45°54' W 084°43'0 0.0
2014-Oct-30 22:33N 45°54' W 084°43'0 0.3
2014-Oct-30 21:33N 45°54' W 084°42'7 7.3
2014-Oct-30 20:32N 45°48' W 084°36'9 9.0
2014-Oct-30 19:33N 45°42' W 084°26'  
2014-Oct-26 06:23N 45°41' W 084°17'8 9.4
2014-Oct-26 05:33N 45°42' W 084°28'9 9.2
2014-Oct-26 04:33N 45°47' W 084°39'9 9.2
2014-Oct-26 03:33N 45°49' W 084°52'9 8.9
2014-Oct-26 02:33N 45°51' W 085°05'9 9.0
2014-Oct-26 01:33N 45°52' W 085°18'9 9.1
2014-Oct-26 00:33N 45°53' W 085°30'9 8.9
2014-Oct-25 23:33N 45°50' W 085°43'9 8.8
2014-Oct-25 22:33N 45°46' W 085°54'9 8.7
2014-Oct-25 21:33N 45°43' W 086°05'9 8.6
2014-Oct-25 20:33N 45°39' W 086°16'9 8.7
2014-Oct-25 19:33N 45°35' W 086°28'  

Dump ship's entire track history